カタログに戻る

COSMOS 945

運用中軍事LEO
NORAD 10291·PAYLOAD·🇷🇺 Russia

打ち上げ Aug 24, 1977 から Plesetsk Cosmodrome

Loading…

次のパス (今後24時間)

TLE

最新Source: Space-Track

元期: Sep 14, 2026, 14:48 UTC

1 10291U 77079G   26257.61705420  .00000001  00000-0  11647-3 0  9993
2 10291  74.0274 325.8794 0017504 125.8471  42.8982 12.47250468212278

AllMySatでCOSMOS 945をリアルタイム追跡

Download on the App Store